DW2217 Weather Reports


time (UTC)temp
C
wind
direction
speed
KPH
gust
KPH
rain 1hr
cm
rain 24hr
cm
rain mn
cm
humidity
%
barometer
mb
20260905233050 17 36 0.0 0.0 0.00 0.00 0.00 74 1012.8
20260905232546 17 36 0.0 3.2 0.00 0.00 0.00 75 1012.6
20260905232041 18 36 0.0 0.0 0.00 0.00 0.00 75 1012.8
20260905231536 18 36 0.0 3.2 0.00 0.00 0.00 74 1012.8
20260905231033 18 53 0.0 0.0 0.00 0.00 0.00 75 1012.7
20260905230532 18 55 0.0 3.2 0.00 0.00 0.00 75 1012.7
20260905230031 18 59 0.0 4.8 0.00 0.00 0.00 73 1012.5
20260905225525 18 24 0.0 0.0 0.00 0.00 0.00 74 1012.7
20260905225021 18 24 0.0 0.0 0.00 0.00 0.00 74 1012.5
20260905224515 18 24 1.6 3.2 0.00 0.00 0.00 75 1012.5
20260905224015 18 31 0.0 3.2 0.00 0.00 0.00 75 1012.5
20260905223512 18 31 0.0 3.2 0.00 0.00 0.00 74 1012.4
20260905223007 18 32 0.0 0.0 0.00 0.00 0.00 74 1012.4
20260905222502 18 31 0.0 3.2 0.00 0.00 0.00 74 1012.3
20260905221957 18 31 0.0 0.0 0.00 0.00 0.00 74 1012.3
20260905221454 18 31 0.0 0.0 0.00 0.00 0.00 74 1012.2
20260905220949 18 31 0.0 0.0 0.00 0.00 0.00 74 1012.3
20260905220445 18 31 0.0 3.2 0.00 0.00 0.00 73 1012.1
20260905215944 19 31 1.6 3.2 0.00 0.00 0.00 72 1012.2
20260905215440 19 31 0.0 3.2 0.00 0.00 0.00 72 1012.0
20260905214936 19 38 0.0 3.2 0.00 0.00 0.00 72 1012.0
20260905214432 19 40 0.0 3.2 0.00 0.00 0.00 73 1011.7
20260905213931 20 42 1.6 3.2 0.00 0.00 0.00 71 1011.6
20260905213428 20 46 1.6 3.2 0.00 0.00 0.00 72 1011.7
20260905212923 20 40 0.0 0.0 0.00 0.00 0.00 70 1011.8
20260905212417 20 42 0.0 3.2 0.00 0.00 0.00 70 1011.6
20260905211916 20 105 0.0 0.0 0.00 0.00 0.00 72 1011.6
20260905211412 20 45 1.6 3.2 0.00 0.00 0.00 71 1011.7
20260905210909 20 48 0.0 3.2 0.00 0.00 0.00 71 1011.6
20260905210403 19 49 0.0 3.2 0.00 0.00 0.00 72 1011.4
20260905205903 19 39 0.0 3.2 0.00 0.00 0.00 71 1011.6
20260905205357 19 21 3.2 3.2 0.00 0.00 0.00 70 1011.4
20260905204856 20 23 1.6 3.2 0.00 0.00 0.00 71 1011.3
20260905204353 20 30 0.0 4.8 0.00 0.00 0.00 69 1011.4
20260905203851 20 77 0.0 0.0 0.00 0.00 0.00 70 1011.3
20260905203346 20 35 1.6 3.2 0.00 0.00 0.00 71 1011.4
20260905202837 20 80 1.6 3.2 0.00 0.00 0.00 70 1011.5
20260905202336 20 36 1.6 4.8 0.00 0.00 0.00 68 1011.3
20260905201833 20 68 0.0 3.2 0.00 0.00 0.00 68 1011.2
20260905201328 20 56 0.0 8.0 0.00 0.00 0.00 69 1011.1
20260905200822 20 96 0.0 3.2 0.00 0.00 0.00 69 1011.1
20260905200318 20 37 1.6 4.8 0.00 0.00 0.00 71 1011.1
20260905195816 20 338 3.2 3.2 0.00 0.00 0.00 72 1011.0
20260905195311 20 229 0.0 0.0 0.00 0.00 0.00 71 1011.1
20260905194807 20 73 1.6 3.2 0.00 0.00 0.00 70 1010.9
20260905194306 20 78 0.0 0.0 0.00 0.00 0.00 71 1011.0
20260905193800 20 83 0.0 0.0 0.00 0.00 0.00 70 1011.1
20260905193256 20 88 1.6 3.2 0.00 0.00 0.00 68 1011.3
20260905192751 20 47 0.0 3.2 0.00 0.00 0.00 68 1011.0
20260905192247 20 103 3.2 8.0 0.00 0.00 0.00 69 1011.0
20260905191747 20 77 3.2 4.8 0.00 0.00 0.00 69 1011.0
20260905191245 20 66 0.0 3.2 0.00 0.00 0.00 69 1010.9
20260905190743 20 352 3.2 4.8 0.00 0.00 0.00 69 1011.0
20260905190242 20 180 3.2 3.2 0.00 0.00 0.00 69 1010.9
20260905185736 21 346 3.2 4.8 0.00 0.00 0.00 68 1011.0
20260905185230 21 261 3.2 4.8 0.00 0.00 0.00 67 1011.0
20260905184724 20 303 3.2 4.8 0.00 0.00 0.00 67 1010.9
20260905184224 20 20 1.6 3.2 0.00 0.00 0.00 68 1011.0
20260905183718 20 42 0.0 3.2 0.00 0.00 0.00 69 1011.0
20260905183213 20 13 3.2 3.2 0.00 0.00 0.00 69 1011.0
20260905182712 20 78 1.6 3.2 0.00 0.00 0.00 68 1011.0
20260905182207 20 70 1.6 3.2 0.00 0.00 0.00 71 1011.2
20260905181702 20 61 0.0 3.2 0.00 0.00 0.00 71 1011.2
20260905181201 20 61 0.0 3.2 0.00 0.00 0.00 72 1011.2
20260905180655 20 97 3.2 3.2 0.00 0.00 0.00 72 1011.2
20260905180152 20 92 0.0 3.2 0.00 0.00 0.00 75 1011.2
20260905175650 20 61 1.6 4.8 0.00 0.00 0.00 74 1011.1
20260905175146 20 126 0.0 3.2 0.00 0.00 0.00 74 1011.2
20260905174641 19 88 0.0 3.2 0.00 0.00 0.00 74 1011.1
20260905174137 19 49 0.0 4.8 0.00 0.00 0.00 76 1011.1
20260905173632 18 333 1.6 4.8 0.00 0.00 0.00 76 1011.2
20260905173128 18 59 1.6 3.2 0.00 0.00 0.00 75 1011.4
20260905172627 18 132 3.2 4.8 0.00 0.00 0.00 74 1011.3
20260905172122 19 151 4.8 8.0 0.00 0.00 0.00 77 1011.1
20260905171618 19 145 1.6 3.2 0.00 0.00 0.00 76 1011.0
20260905171114 20 11 4.8 8.0 0.00 0.00 0.00 76 1011.1
20260905170610 20 285 4.8 8.0 0.00 0.00 0.00 76 1011.2
20260905170105 20 82 3.2 3.2 0.00 0.00 0.00 77 1011.1
20260905165600 18 12 4.8 4.8 0.00 0.00 0.00 81 1011.2
20260905165055 18 44 0.0 3.2 0.00 0.00 0.00 80 1011.4
20260905164549 19 45 1.6 4.8 0.00 0.00 0.00 80 1011.5
20260905164043 18 246 0.0 3.2 0.00 0.00 0.00 81 1011.3
20260905163540 18 65 0.0 3.2 0.00 0.00 0.00 82 1011.5
20260905163036 18 49 0.0 0.0 0.00 0.00 0.00 82 1011.4
20260905162533 18 2 1.6 3.2 0.00 0.00 0.00 83 1011.3
20260905162026 18 352 3.2 4.8 0.00 0.00 0.00 84 1011.4
20260905161521 18 174 4.8 4.8 0.00 0.00 0.00 84 1011.4
20260905161018 18 54 0.0 4.8 0.00 0.00 0.00 84 1011.5
20260905160512 18 6 0.0 4.8 0.00 0.00 0.00 85 1011.4
20260905160011 18 16 1.6 4.8 0.00 0.00 0.00 86 1011.2
20260905155506 18 31 1.6 3.2 0.00 0.00 0.00 85 1011.3
20260905155004 18 30 4.8 11.3 0.00 0.00 0.00 83 1011.4
20260905154500 18 77 1.6 3.2 0.00 0.00 0.00 84 1011.2
20260905153955 18 77 0.0 4.8 0.00 0.00 0.00 83 1011.1
20260905153451 19 42 0.0 4.8 0.00 0.00 0.00 82 1011.0
20260905152950 19 106 1.6 4.8 0.00 0.00 0.00 80 1011.1
20260905152445 18 53 4.8 4.8 0.00 0.00 0.00 81 1010.9
20260905151939 18 330 3.2 4.8 0.00 0.00 0.00 80 1011.1
20260905151435 19 39 1.6 4.8 0.00 0.00 0.00 80 1011.1
20260905150930 18 147 3.2 4.8 0.00 0.00 0.00 80 1011.0
20260905150430 18 353 3.2 4.8 0.00 0.00 0.00 80 1011.0
20260905145926 18 72 0.0 3.2 0.00 0.00 0.00 81 1010.9
20260905145421 18 60 1.6 4.8 0.00 0.00 0.00 80 1011.0
20260905144916 18 263 4.8 4.8 0.00 0.00 0.00 82 1010.9
20260905144411 18 79 1.6 4.8 0.00 0.00 0.00 81 1010.8
20260905143909 18 21 1.6 4.8 0.00 0.00 0.00 83 1011.1
20260905143403 18 44 0.0 4.8 0.00 0.00 0.00 82 1010.8
20260905142857 18 157 1.6 3.2 0.00 0.00 0.00 82 1011.0
20260905142355 18 238 0.0 4.8 0.00 0.00 0.00 83 1011.1
20260905141852 18 58 0.0 3.2 0.00 0.00 0.00 82 1010.7
20260905141347 18 20 4.8 8.0 0.00 0.00 0.00 83 1011.0
20260905140843 17 205 3.2 4.8 0.00 0.00 0.00 83 1010.9
20260905140343 17 61 0.0 4.8 0.00 0.00 0.00 84 1010.7
20260905135841 17 358 3.2 3.2 0.00 0.00 0.00 85 1010.6
20260905135338 17 40 1.6 3.2 0.00 0.00 0.00 86 1010.7
20260905134833 17 332 3.2 3.2 0.00 0.00 0.00 85 1010.7
20260905134326 17 269 4.8 8.0 0.00 0.00 0.00 86 1010.7
20260905133820 17 0 3.2 3.2 0.00 0.00 0.00 86 1010.6
20260905133316 17 225 1.6 4.8 0.00 0.00 0.00 86 1010.5
20260905132814 17 64 1.6 4.8 0.00 0.00 0.00 85 1010.4
20260905132311 17 19 0.0 3.2 0.00 0.00 0.00 85 1010.5
20260905131805 17 130 0.0 4.8 0.00 0.00 0.00 85 1010.2
20260905131301 17 79 0.0 8.0 0.00 0.00 0.00 85 1010.3
20260905130755 17 303 3.2 4.8 0.00 0.00 0.00 85 1010.2
20260905130254 17 333 1.6 3.2 0.00 0.00 0.00 86 1010.1
20260905125750 17 4 0.0 4.8 0.00 0.00 0.00 86 1010.0
20260905125245 17 76 0.0 3.2 0.00 0.00 0.00 86 1010.0
20260905124742 17 67 0.0 0.0 0.00 0.00 0.00 86 1010.1
20260905124237 17 50 0.0 3.2 0.00 0.00 0.00 86 1010.1
20260905123732 17 32 0.0 0.0 0.00 0.00 0.00 85 1010.0
20260905123229 17 17 3.2 4.8 0.00 0.00 0.00 86 1010.1
20260905122728 17 0 0.0 0.0 0.00 0.00 0.00 86 1010.0
20260905122223 17 0 0.0 3.2 0.00 0.00 0.00 85 1009.7
20260905121718 17 0 1.6 3.2 0.00 0.00 0.00 87 1009.8
20260905121214 17 0 0.0 0.0 0.00 0.00 0.00 87 1009.8
20260905120713 16 359 0.0 4.8 0.00 0.00 0.00 89 1009.7
20260905120207 16 10 0.0 0.0 0.00 0.00 0.00 89 1009.7
20260905115702 16 10 0.0 3.2 0.00 0.00 0.00 89 1009.6
20260905115157 16 10 0.0 0.0 0.00 0.00 0.00 89 1009.6
20260905114657 16 10 0.0 0.0 0.00 0.00 0.00 89 1009.5
20260905114154 16 10 0.0 0.0 0.00 0.00 0.00 90 1009.6
20260905113649 16 10 0.0 0.0 0.00 0.00 0.00 91 1009.5
20260905113145 16 9 0.0 0.0 0.00 0.00 0.00 92 1009.5
20260905112644 16 9 0.0 0.0 0.00 0.00 0.00 91 1009.4
20260905112141 16 9 0.0 0.0 0.00 0.00 0.00 91 1009.6
20260905111640 16 9 0.0 3.2 0.00 0.00 0.00 91 1009.5
20260905111140 16 9 0.0 3.2 0.00 0.00 0.00 92 1009.4
20260905110639 16 9 0.0 3.2 0.00 0.00 0.00 93 1009.4
20260905110134 16 9 0.0 0.0 0.00 0.00 0.00 93 1009.5
20260905105629 16 9 0.0 3.2 0.00 0.00 0.00 93 1009.3
20260905105128 16 8 3.2 3.2 0.00 0.00 0.00 93 1009.3
20260905104624 16 9 0.0 0.0 0.00 0.00 0.00 93 1009.3
20260905104119 15 9 0.0 3.2 0.00 0.00 0.00 93 1009.1
20260905103614 15 8 3.2 3.2 0.00 0.00 0.00 94 1009.0
20260905103110 15 10 1.6 3.2 0.00 0.00 0.00 94 1008.8
20260905102605 15 10 3.2 3.2 0.00 0.00 0.00 95 1008.8
20260905102102 15 10 0.0 0.0 0.00 0.00 0.00 95 1008.8
20260905101600 15 10 0.0 3.2 0.00 0.00 0.00 95 1009.1
20260905101058 15 10 0.0 0.0 0.00 0.00 0.00 95 1008.7
20260905100555 15 10 0.0 0.0 0.00 0.00 0.00 96 1008.8
20260905100055 15 10 0.0 0.0 0.00 0.00 0.00 96 1008.6
20260905095544 15 10 0.0 0.0 0.00 0.00 0.00 96 1009.0
20260905095039 15 10 0.0 0.0 0.00 0.00 0.00 96 1008.7
20260905094534 15 10 0.0 3.2 0.00 0.00 0.00 95 1008.7
20260905094033 15 10 0.0 3.2 0.00 0.00 0.00 95 1008.6
20260905093527 15 10 0.0 0.0 0.00 0.00 0.00 95 1008.6
20260905093024 15 10 0.0 0.0 0.00 0.00 0.00 95 1008.6
20260905092524 15 10 0.0 0.0 0.00 0.00 0.00 94 1008.5
20260905092020 15 10 0.0 0.0 0.00 0.00 0.00 94 1008.7
20260905091519 16 10 0.0 0.0 0.00 0.00 0.00 94 1008.5
20260905091014 15 10 0.0 3.2 0.00 0.00 0.00 93 1008.4
20260905090513 15 10 0.0 0.0 0.00 0.00 0.00 93 1008.6
20260905090008 15 10 0.0 0.0 0.00 0.00 0.00 93 1008.4
20260905085507 15 10 0.0 3.2 0.00 0.00 0.00 92 1008.2
20260905085002 15 9 0.0 3.2 0.00 0.00 0.00 92 1008.3
20260905084457 15 8 1.6 3.2 0.00 0.00 0.00 92 1008.2
20260905083952 15 8 1.6 3.2 0.00 0.00 0.00 92 1008.3
20260905083447 15 9 1.6 3.2 0.00 0.00 0.00 93 1008.3
20260905082943 15 9 0.0 0.0 0.00 0.00 0.00 92 1008.0
20260905082439 15 9 0.0 0.0 0.00 0.00 0.00 92 1007.9
20260905081933 15 9 0.0 0.0 0.00 0.00 0.00 92 1008.0
20260905081428 16 9 0.0 0.0 0.00 0.00 0.00 91 1008.1
20260905080927 16 7 0.0 3.2 0.00 0.00 0.00 90 1008.0
20260905080422 16 21 3.2 3.2 0.00 0.00 0.00 90 1008.2
20260905075921 15 21 3.2 3.2 0.00 0.00 0.00 91 1007.9
20260905075415 15 20 3.2 3.2 0.00 0.00 0.00 91 1007.8
20260905074914 15 30 1.6 3.2 0.00 0.00 0.00 91 1007.7
20260905074410 15 35 1.6 3.2 0.00 0.00 0.00 91 1008.0
20260905073906 15 63 0.0 3.2 0.00 0.00 0.00 91 1007.9
20260905073401 16 60 3.2 3.2 0.00 0.00 0.00 90 1008.0
20260905072856 16 342 3.2 3.2 0.00 0.00 0.00 88 1008.0
20260905072350 16 359 3.2 4.8 0.00 0.00 0.00 88 1008.0
20260905071841 16 12 3.2 3.2 0.00 0.00 0.00 88 1007.9
20260905071337 16 9 3.2 3.2 0.00 0.00 0.00 88 1007.9
20260905070831 16 351 3.2 3.2 0.00 0.00 0.00 88 1008.0
20260905070328 16 354 3.2 3.2 0.00 0.00 0.00 88 1008.1
20260905065827 16 353 3.2 3.2 0.00 0.00 0.00 88 1008.1
20260905065325 16 309 4.8 4.8 0.00 0.00 0.00 89 1008.2
20260905064821 16 283 6.4 8.0 0.00 0.00 0.00 89 1008.4
20260905064316 16 345 3.2 4.8 0.00 0.00 0.00 89 1008.3
20260905063815 16 346 3.2 4.8 0.00 0.00 0.00 88 1008.3
20260905063311 16 355 3.2 4.8 0.00 0.00 0.00 88 1008.2
20260905062807 16 358 3.2 3.2 0.00 0.00 0.00 88 1008.2
20260905062305 16 7 3.2 3.2 0.00 0.00 0.00 88 1008.0
20260905061755 16 45 0.0 3.2 0.00 0.00 0.00 89 1008.1
20260905061250 16 318 0.0 0.0 0.00 0.00 0.00 87 1008.2
20260905060744 17 314 3.2 3.2 0.00 0.00 0.00 86 1008.2
20260905060241 17 330 3.2 3.2 0.00 0.00 0.00 85 1008.1
20260905055739 17 345 3.2 4.8 0.00 0.00 0.00 85 1008.3
20260905055235 17 350 3.2 4.8 0.00 0.00 0.00 85 1008.3
20260905054724 17 335 4.8 4.8 0.00 0.00 0.00 85 1008.3
20260905054221 16 340 4.8 4.8 0.00 0.00 0.00 86 1008.3
20260905053719 16 6 3.2 4.8 0.00 0.00 0.00 86 1008.4
20260905053214 17 4 3.2 4.8 0.00 0.00 0.00 86 1008.5
20260905052709 17 3 3.2 3.2 0.00 0.00 0.00 85 1008.4
20260905052204 17 4 3.2 3.2 0.00 0.00 0.00 85 1008.5
20260905051704 17 15 3.2 3.2 0.00 0.00 0.00 86 1008.3
20260905051201 16 7 3.2 3.2 0.00 0.00 0.00 87 1008.5
20260905050657 16 21 1.6 3.2 0.00 0.00 0.00 89 1008.7
20260905050154 16 18 3.2 3.2 0.00 0.00 0.00 88 1008.5
20260905045653 17 16 3.2 3.2 0.00 0.00 0.00 86 1008.5
20260905045148 17 15 3.2 3.2 0.00 0.00 0.00 85 1008.4
20260905044643 17 43 1.6 3.2 0.00 0.00 0.00 85 1008.4
20260905044138 17 44 0.0 0.0 0.00 0.00 0.00 86 1008.3
20260905043636 17 44 0.0 3.2 0.00 0.00 0.00 86 1008.3
20260905043132 17 44 0.0 0.0 0.00 0.00 0.00 85 1008.3
20260905042631 17 42 0.0 3.2 0.00 0.00 0.00 85 1008.3
20260905042126 17 44 1.6 3.2 0.00 0.00 0.00 85 1008.3
20260905041621 17 97 0.0 0.0 0.00 0.00 0.00 86 1008.6
20260905041117 17 100 0.0 0.0 0.00 0.00 0.00 86 1008.3
20260905040616 17 100 0.0 0.0 0.00 0.00 0.00 85 1008.4
20260905040115 17 134 3.2 3.2 0.00 0.00 0.00 84 1008.5
20260905035611 18 142 3.2 3.2 0.00 0.00 0.00 82 1008.3
20260905035107 18 20 3.2 3.2 0.00 0.00 0.00 82 1008.3
20260905034602 18 16 3.2 3.2 0.00 0.00 0.00 81 1008.3
20260905034056 18 4 3.2 4.8 0.00 0.00 0.00 82 1008.3
20260905033550 18 345 1.6 4.8 0.00 0.00 0.00 82 1008.3
20260905033046 18 312 4.8 4.8 0.00 0.00 0.00 82 1008.4
20260905032541 18 318 3.2 4.8 0.00 0.00 0.00 81 1008.4
20260905032036 18 316 4.8 4.8 0.00 0.00 0.00 81 1008.6
20260905031531 18 312 3.2 3.2 0.00 0.00 0.00 81 1008.6
20260905031030 18 314 3.2 3.2 0.00 0.00 0.00 81 1008.7
20260905030521 18 319 3.2 4.8 0.00 0.00 0.00 80 1008.6
20260905030021 18 312 3.2 4.8 0.00 0.00 0.00 80 1008.6
20260905025516 18 335 3.2 4.8 0.00 0.00 0.00 80 1008.6
20260905025012 18 350 4.8 4.8 0.00 0.00 0.00 79 1008.6
20260905024507 18 357 3.2 3.2 0.00 0.00 0.00 79 1008.6
20260905024003 18 334 3.2 4.8 0.00 0.00 0.00 79 1008.7
20260905023457 18 331 3.2 3.2 0.00 0.00 0.00 79 1008.6
20260905022956 18 325 3.2 3.2 0.00 0.00 0.00 79 1008.6
20260905022451 18 310 4.8 8.0 0.00 0.00 0.00 79 1008.7
20260905021947 18 342 3.2 4.8 0.00 0.00 0.00 81 1008.7
20260905021446 18 5 3.2 3.2 0.00 0.00 0.00 82 1008.7
20260905020942 18 39 1.6 3.2 0.00 0.00 0.00 82 1009.0
20260905020441 18 61 1.6 3.2 0.00 0.00 0.00 81 1009.0
20260905015936 18 63 0.0 0.0 0.00 0.00 0.00 82 1008.8
20260905015434 18 64 0.0 0.0 0.00 0.00 0.00 82 1008.8
20260905014933 18 63 1.6 3.2 0.00 0.00 0.00 83 1008.8
20260905014429 18 63 3.2 3.2 0.00 0.00 0.00 83 1009.0
20260905013924 19 346 1.6 3.2 0.00 0.00 0.00 78 1008.8
20260905013421 19 341 1.6 3.2 0.00 0.00 0.00 79 1008.7
20260905012915 19 321 3.2 4.8 0.00 0.00 0.00 79 1008.8
20260905012411 19 316 4.8 4.8 0.00 0.00 0.00 77 1009.0
20260905011908 19 321 3.2 4.8 0.00 0.00 0.00 77 1008.8
20260905011403 19 328 3.2 4.8 0.00 0.00 0.00 77 1008.8
20260905010858 20 340 3.2 4.8 0.00 0.00 0.00 76 1009.1
20260905010353 20 354 1.6 3.2 0.00 0.00 0.00 76 1009.1
20260905005849 20 354 0.0 3.2 0.00 0.00 0.00 77 1009.1
20260905005345 20 354 0.0 3.2 0.00 0.00 0.00 77 1009.1
20260905004839 20 353 1.6 3.2 0.00 0.00 0.00 75 1009.0
20260905004334 20 353 3.2 3.2 0.00 0.00 0.00 77 1008.7
20260905003830 20 351 3.2 3.2 0.00 0.00 0.00 76 1008.8
20260905003325 20 359 0.0 3.2 0.00 0.00 0.00 75 1008.8
20260905002821 20 359 0.0 0.0 0.00 0.00 0.00 75 1009.0
20260905002315 20 359 0.0 0.0 0.00 0.00 0.00 76 1009.0
20260905001810 20 359 0.0 0.0 0.00 0.00 0.00 77 1008.7
20260905001309 20 358 0.0 0.0 0.00 0.00 0.00 77 1008.8
20260905000805 20 352 0.0 0.0 0.00 0.00 0.00 78 1009.0
20260905000300 20 350 0.0 3.2 0.00 0.00 0.00 79 1008.7
20260904235756 20 349 1.6 3.2 0.00 0.00 0.00 78 1008.6
20260904235250 20 354 1.6 3.2 0.00 0.00 0.00 76 1008.4
20260904234745 20 341 1.6 3.2 0.00 0.00 0.00 76 1008.5
20260904234240 20 308 4.8 4.8 0.00 0.00 0.00 72 1008.4
20260904233736 20 29 3.2 3.2 0.00 0.00 0.00 71 1008.3